Theta_e
347 346 347 345 345 344 346 346 348 349 349 347 347 345 343 342 340 341 342 333 336 338 338 340 338 340 341 340 342 342 342 344 342 342 343 343 343 342 338 339 340 337 339
347 347 347 347 347 346 346 348 350 350 349 346 346 347 346 344 344 345 344 346 336 334 333 334 336 337 340 345 346 345 345 343 340 340 340 340 340 340 342 342 341 338 344
349 348 347 347 347 347 349 349 350 350 346 345 346 346 346 347 346 347 347 346 347 347 339 335 335 335 336 339 341 341 341 340 339 339 339 340 340 342 342 342 342 342 339
352 351 350 348 348 347 348 348 348 348 344 342 344 344 345 346 347 348 347 347 347 346 347 344 341 340 339 340 342 343 345 346 347 344 343 341 340 339 338 336 337 340 341
352 349 350 350 348 348 348 348 348 348 345 344 343 344 346 346 346 345 347 348 348 348 347 348 346 345 344 343 342 341 341 341 341 342 342 343 342 340 339 336 334 335 339
353 349 350 350 348 348 348 349 349 347 345 345 342 344 345 346 346 346 346 346 346 348 348 349 350 349 347 345 343 343 342 342 342 342 343 343 344 344 343 342 340 335 333
349 353 349 350 349 348 349 351 349 348 345 346 344 342 343 344 344 344 344 345 346 347 347 349 351 349 349 349 348 344 343 343 344 344 344 344 345 345 345 345 345 343 336
351 350 351 349 349 349 353 351 351 345 345 346 344 343 343 341 341 341 343 344 345 345 345 347 350 351 352 351 350 346 346 343 343 344 344 344 344 344 345 345 346 346 344
351 351 350 350 350 349 348 352 351 352 345 346 350 348 346 346 343 342 344 344 347 345 346 348 349 350 352 353 352 351 350 351 351 351 351 351 351 350 348 346 346 347 348
352 351 350 350 351 351 350 351 351 350 348 345 347 346 349 350 349 347 344 346 347 347 351 348 348 350 353 352 354 354 353 352 352 349 345 342 342 345 351 353 350 352 352
352 352 351 350 352 351 352 353 354 354 347 347 346 347 349 350 352 348 348 345 346 347 347 349 350 351 353 355 353 353 354 351 350 347 345 347 354 351 352 354 355 353 352
352 353 354 354 356 353 354 354 355 355 354 352 348 347 348 349 349 349 348 347 348 347 347 349 351 352 353 354 355 352 358 352 349 344 345 355 356 356 356 355 354 352 351
351 354 354 351 352 354 356 354 355 354 355 353 353 348 348 350 351 351 350 348 348 348 347 348 348 351 352 354 354 352 358 355 346 347 349 356 354 355 355 354 353 350 346
351 356 351 353 354 353 355 356 354 351 353 353 355 355 350 349 350 351 351 351 350 347 349 352 348 351 352 353 354 353 355 356 348 349 351 356 354 354 355 354 349 338 333
351 356 354 350 351 353 354 355 353 354 354 354 354 356 352 349 349 350 351 350 350 351 350 352 351 352 353 352 354 354 355 353 352 350 349 355 355 354 354 352 342 333 335
353 354 356 355 352 352 353 353 353 355 356 353 351 354 355 349 351 350 350 350 351 350 351 347 350 353 357 355 353 356 354 351 350 350 347 352 354 354 354 348 335 336 334
354 355 357 356 355 354 354 354 354 352 355 353 354 355 354 354 351 349 350 351 351 350 351 348 351 352 356 356 358 358 353 351 348 350 347 349 352 353 353 344 333 336 333
355 354 354 355 357 357 357 355 352 352 354 354 355 354 354 352 356 354 351 352 350 352 352 353 353 353 353 355 357 357 353 349 351 350 349 349 350 352 353 341 334 337 334
352 352 353 355 356 357 357 358 355 353 354 355 355 355 353 353 355 352 354 353 351 353 352 352 353 352 352 352 355 352 352 347 346 347 350 352 353 351 352 341 335 339 339
351 351 352 353 354 356 356 356 356 357 356 354 356 356 354 351 353 355 356 356 356 357 355 354 353 351 349 349 351 349 346 344 346 349 350 353 354 354 349 345 336 338 341
352 352 351 350 351 352 353 356 356 356 357 357 356 357 354 351 349 351 350 350 351 353 353 350 349 347 346 348 349 348 346 346 347 351 352 353 357 358 349 344 338 334 341
354 353 353 351 349 347 346 351 354 355 356 357 356 358 357 354 353 348 347 345 347 352 352 349 344 344 349 350 348 347 349 349 350 346 350 351 359 358 350 344 341 334 336
353 353 354 353 352 351 345 346 349 351 353 355 356 356 356 352 354 355 354 350 348 347 347 351 353 352 351 351 352 355 354 355 354 351 352 354 358 359 350 348 348 337 334
353 353 353 354 353 353 351 348 345 349 351 352 354 355 356 354 352 355 355 355 354 352 353 353 352 353 353 353 355 356 357 357 355 352 354 357 355 361 353 347 349 342 334
353 352 353 353 354 354 352 350 348 347 344 349 351 354 355 355 355 355 354 352 353 351 348 350 348 348 351 350 350 352 351 349 346 344 347 354 354 361 356 353 344 342 335
349 352 352 352 353 354 354 353 350 348 348 343 343 350 352 353 354 354 354 353 353 350 348 348 350 351 352 349 348 349 351 350 346 345 346 355 353 360 359 353 344 339 336
Wind_Speed
9 8 8 8 8 7 5 4 5 6 6 7 7 8 9 8 7 6 5 3 2 2 1 1 1 2 4 5 5 5 6 7 7 8 9 9 9 9 9 9 9 9 8
8 8 9 8 7 6 4 3 3 4 5 5 8 7 8 7 6 5 5 3 6 3 2 2 2 3 4 5 7 7 8 8 9 9 10 11 11 10 9 10 11 6 9
7 8 7 6 6 4 3 3 3 4 5 5 5 5 5 5 5 4 4 4 3 5 6 4 4 4 5 6 7 8 8 9 10 10 10 11 11 10 11 10 10 10 8
5 6 5 6 5 4 4 4 4 4 5 6 5 4 4 3 3 2 2 2 3 3 6 8 6 6 6 7 7 8 9 10 11 12 12 12 12 12 11 11 10 8 8
5 5 6 7 6 6 6 4 3 2 5 4 5 3 1 1 1 2 2 3 2 3 4 7 9 7 8 8 8 9 10 10 11 12 12 13 13 12 12 12 11 9 9
6 6 7 7 7 7 6 4 3 3 3 3 4 3 1 1 0 1 2 2 2 3 3 5 5 6 10 10 10 9 10 11 12 13 14 15 16 16 15 14 13 12 10
6 7 7 9 8 7 4 4 5 4 5 3 2 4 2 3 1 1 1 2 2 3 4 4 4 4 6 12 11 11 12 13 14 16 17 17 18 18 18 17 16 14 11
5 5 6 8 9 7 5 6 3 5 3 3 5 3 1 7 3 2 2 2 2 2 2 3 3 4 6 7 8 12 13 14 15 16 16 17 18 19 20 19 17 16 14
5 7 7 6 7 7 8 6 4 1 6 3 3 6 2 4 2 3 3 3 2 2 3 3 3 4 5 7 9 10 14 14 14 14 15 16 17 19 21 21 18 16 17
7 7 8 7 8 5 7 6 4 3 1 6 3 3 4 4 4 5 6 5 3 3 4 4 5 4 5 6 8 12 14 14 13 14 16 19 21 21 18 18 18 16 13
7 8 9 8 9 7 8 6 4 2 2 1 3 3 3 2 2 5 4 4 6 6 6 8 6 6 6 8 9 14 14 10 15 17 19 20 18 17 15 15 14 13 12
8 7 8 8 6 6 8 6 4 4 1 0 1 2 4 4 6 4 2 3 2 4 4 5 5 7 8 10 10 17 14 11 19 19 18 14 16 16 16 14 13 13 11
8 9 9 7 7 6 6 6 5 5 4 3 2 1 0 1 3 4 4 4 3 3 3 1 5 6 10 11 12 17 13 14 18 18 17 12 16 17 16 15 18 21 19
9 9 10 7 6 6 7 7 6 7 6 5 3 3 3 2 2 3 5 7 6 4 1 2 5 6 11 13 11 17 12 15 17 18 15 11 14 17 18 18 22 23 18
9 10 11 11 8 6 6 8 8 7 7 7 6 5 6 5 5 5 5 5 7 6 6 1 8 7 12 15 14 15 13 17 14 19 18 10 13 17 19 20 25 22 17
12 9 12 12 11 10 9 8 7 8 8 8 8 8 7 8 7 7 7 7 7 9 7 12 11 11 13 15 13 15 14 16 11 18 19 10 12 17 21 22 25 22 13
13 13 12 12 12 12 12 11 8 6 9 8 8 8 9 9 10 9 8 9 9 9 12 14 13 12 15 14 15 14 14 13 14 15 19 12 12 17 20 22 23 20 12
16 15 14 15 14 13 13 14 12 10 10 9 9 10 10 10 10 10 11 9 11 10 12 14 14 15 14 14 14 15 13 14 15 10 18 13 15 17 17 20 19 17 11
19 18 16 16 16 15 16 16 16 14 13 12 12 12 12 11 12 12 10 10 11 10 11 15 15 15 14 14 13 13 11 14 13 19 11 13 17 17 14 16 16 14 10
18 19 20 19 18 16 15 17 17 16 16 15 14 15 14 14 14 13 13 12 12 13 14 15 15 14 14 12 12 13 15 14 15 14 11 10 11 14 14 13 14 11 8
20 20 20 21 21 20 20 19 19 19 17 16 15 16 16 15 16 16 15 14 13 14 15 16 16 15 14 12 13 14 15 15 15 9 11 14 8 8 7 10 12 8 5
22 21 22 23 24 25 26 25 23 21 20 19 18 18 18 18 19 20 20 19 18 15 16 16 17 16 14 15 14 14 15 16 14 13 15 16 7 7 4 4 10 7 3
20 23 23 24 26 26 27 28 30 26 23 22 21 20 20 21 21 19 18 20 22 23 24 21 20 20 20 16 15 15 15 16 17 19 13 13 7 6 3 6 6 7 3
20 21 23 24 26 27 29 31 33 30 28 27 25 24 23 23 21 21 20 20 20 20 20 20 22 24 23 18 15 15 15 16 18 16 7 10 10 6 4 5 6 7 3
18 21 23 24 25 26 27 31 33 30 32 32 31 30 29 28 28 27 27 25 23 24 23 24 26 27 28 26 24 19 19 19 19 17 11 13 12 7 6 7 8 5 4
19 21 22 25 26 27 26 29 32 28 30 32 33 34 37 36 34 33 32 28 27 28 25 23 19 22 24 25 25 28 23 21 21 19 13 8 13 4 4 7 7 4 4
Wind_Direction
127 127 124 121 118 119 117 92 82 66 64 68 82 84 80 83 83 85 88 38 72 68 47 19 7 353 351 343 334 331 328 327 326 326 328 326 326 327 329 328 321 326 335
131 134 133 126 125 128 116 110 99 69 52 74 91 85 77 78 76 75 75 62 36 43 34 10 349 345 330 314 319 320 321 323 322 321 321 322 321 319 327 319 321 319 317
136 141 138 138 139 152 142 130 107 71 67 98 90 87 88 74 70 65 57 51 30 3 16 22 10 348 337 334 327 323 322 323 323 322 321 319 317 316 309 306 305 314 314
159 174 159 147 155 161 164 144 118 101 74 92 95 92 94 80 61 37 35 17 30 25 345 357 356 347 341 338 334 327 326 324 323 322 320 317 312 310 307 302 298 295 299
158 159 164 160 147 155 150 152 117 85 115 85 124 110 97 95 91 66 11 349 349 6 2 325 339 354 349 338 331 330 330 326 324 322 319 314 312 310 307 305 298 288 278
152 152 159 158 152 154 152 146 129 114 92 49 42 74 51 143 159 341 352 336 347 340 337 322 325 334 334 345 341 337 332 330 326 321 318 314 310 305 298 291 289 282 274
152 150 152 159 162 161 150 161 157 143 127 65 228 145 160 185 223 310 342 344 355 330 320 314 330 334 332 329 341 334 329 325 322 319 316 314 311 307 302 293 284 277 269
151 144 148 160 164 156 160 157 162 142 107 55 16 228 101 153 126 30 12 351 8 347 346 341 331 327 329 330 319 332 339 333 328 322 317 314 312 307 303 297 291 279 263
163 162 164 168 164 178 163 166 149 263 113 89 33 340 230 57 244 101 102 71 49 36 25 33 1 341 330 334 342 347 343 349 344 339 337 333 325 316 309 305 298 277 266
164 165 167 165 168 187 165 168 154 126 207 110 108 52 25 18 349 128 110 98 126 95 52 19 11 2 1 7 6 356 352 349 354 5 356 345 335 328 331 319 309 296 271
184 174 179 178 165 173 163 160 159 155 139 62 37 56 53 75 91 333 67 74 108 74 46 39 50 34 15 4 358 351 353 12 3 359 352 351 355 356 348 349 349 335 308
179 194 184 179 172 167 174 178 183 187 181 119 341 19 15 5 50 2 4 50 333 60 33 42 35 13 0 352 351 349 350 357 356 354 354 6 4 356 353 359 3 349 337
186 182 191 191 183 187 184 190 203 202 202 218 263 316 346 50 11 355 326 11 324 356 5 290 339 347 349 344 344 354 331 346 354 360 358 9 8 6 359 351 343 334 325
198 170 190 191 197 196 199 205 202 206 203 214 221 265 277 266 298 327 344 338 327 330 267 6 328 335 344 342 334 348 345 333 352 0 2 0 7 4 352 343 338 334 325
211 199 189 190 197 207 213 202 204 205 210 220 228 232 247 255 261 274 290 313 327 320 322 10 325 329 332 335 331 340 334 329 340 345 354 349 353 355 355 349 347 346 340
226 205 201 193 189 197 209 215 211 206 211 228 236 228 241 249 251 259 271 280 287 298 302 311 316 319 323 328 326 334 327 334 330 332 349 343 346 351 358 355 356 356 6
217 220 214 212 207 202 203 209 224 220 219 228 235 234 240 245 251 255 261 268 275 280 286 297 309 313 318 318 321 325 327 324 332 322 343 342 348 355 2 3 1 9 31
219 219 223 221 218 221 211 206 212 227 230 233 236 240 243 242 242 252 257 265 281 286 284 294 299 302 307 313 313 317 322 326 327 313 330 338 349 356 3 9 7 25 49
223 224 225 227 230 225 218 218 217 221 229 237 240 241 245 241 242 252 249 266 265 265 268 277 294 296 303 306 312 314 316 323 326 328 330 330 338 352 5 9 17 30 50
222 224 224 225 228 236 229 225 224 225 227 235 240 240 244 242 244 246 246 253 261 269 269 270 278 290 296 302 297 309 320 323 330 330 331 311 331 347 353 5 22 30 56
229 226 225 226 229 233 236 230 228 229 234 236 237 232 237 240 240 239 246 246 257 258 267 273 279 285 290 309 314 310 305 318 322 329 329 332 321 335 337 357 3 25 47
233 230 229 229 229 231 234 234 231 236 238 239 240 233 233 238 242 244 244 246 247 252 259 272 281 285 291 285 293 303 311 314 312 326 324 319 312 323 320 343 1 10 31
239 237 235 232 233 231 234 235 236 234 240 241 242 241 238 239 236 240 248 251 252 251 251 254 265 268 277 278 285 289 293 301 299 308 307 304 304 312 278 314 337 352 356
245 243 241 238 239 237 235 234 237 236 238 241 243 242 240 243 241 239 242 246 250 255 258 258 254 259 263 268 266 274 283 287 290 288 274 290 309 290 253 264 297 328 325
251 249 246 242 241 243 241 239 235 236 241 242 240 240 241 242 243 242 242 250 254 257 261 259 260 261 259 260 258 269 272 276 284 292 283 270 295 286 258 258 264 303 306
266 254 255 249 244 245 243 243 239 234 238 241 241 241 242 240 243 243 242 245 250 253 259 264 264 263 267 267 261 251 253 259 270 281 294 260 278 267 255 222 237 279 322